Theta_e
313 313 312 311 311 312 312 312 312 312 312 312 312 312 312 313 313 312 312 312 312 312 312 312 312 313 313 312 312 312 312 312 311 311 312 312 312 312 311 310 311 314 314 314 314 315 316 316 317 318 318 318 319 320 320 320 321 321 321 321 321 322 322 322 322 323 323 324 324 324 324 325 325 325 325 325 326 325 324 324 323 324 325 326 328
313 313 312 312 312 311 312 312 312 311 311 310 310 310 310 311 312 311 311 312 312 312 312 312 312 312 312 312 312 312 312 312 312 312 312 313 313 312 311 311 311 312 313 312 314 315 316 316 317 317 317 318 319 319 320 321 321 321 321 321 321 322 322 322 321 322 323 324 324 324 324 324 325 325 325 325 325 325 325 326 325 324 324 326 327
312 313 312 312 312 312 312 312 311 310 310 310 309 308 309 310 311 311 311 312 312 312 312 312 312 312 312 312 312 312 312 312 312 312 312 313 313 312 312 312 311 311 310 311 314 314 315 316 316 316 317 318 318 319 319 320 321 321 320 320 321 322 322 322 321 322 323 323 323 324 324 324 325 324 325 325 324 325 325 325 326 325 326 328 329
312 312 312 312 312 312 312 311 311 310 310 310 309 309 309 309 310 311 311 311 311 312 311 312 312 312 312 312 312 312 311 312 312 313 313 313 313 313 313 311 310 311 310 311 313 314 314 315 316 316 317 317 317 318 319 319 319 320 320 320 321 322 322 322 322 322 321 322 322 324 324 324 324 324 325 325 325 326 326 325 327 327 327 330 331
312 312 312 312 312 312 312 312 311 311 311 311 310 310 310 309 309 310 310 311 311 311 311 311 312 312 312 312 312 312 312 312 312 313 313 313 313 313 312 311 310 311 311 311 312 313 314 314 315 316 316 317 317 318 319 319 319 319 320 320 320 321 321 322 322 322 320 321 322 323 324 324 324 324 324 325 325 327 327 326 328 329 329 330 332
313 312 311 312 312 312 312 312 312 312 311 311 311 311 311 311 310 310 310 311 310 310 311 311 311 312 312 312 312 312 312 312 312 313 313 313 313 313 312 311 311 312 312 311 311 311 313 313 314 315 316 316 317 318 318 318 319 319 320 320 320 322 322 321 322 322 322 321 321 323 324 324 324 324 324 324 325 327 327 326 327 329 331 330 332
314 312 312 312 312 312 312 312 312 312 311 311 311 311 311 311 311 311 310 311 311 310 311 311 311 312 312 312 312 312 312 312 312 313 313 313 313 313 312 311 311 312 312 311 311 311 312 313 314 314 315 316 316 317 318 318 318 319 320 320 321 322 322 322 321 322 323 322 322 323 323 323 323 324 324 324 324 326 326 325 327 328 328 328 330
314 313 313 313 313 313 313 312 312 312 312 311 311 312 312 311 311 312 311 311 311 311 310 311 311 311 311 312 312 312 312 312 313 313 313 313 313 313 312 311 311 312 312 312 311 311 311 312 313 314 314 315 316 317 317 318 318 319 320 321 321 321 321 321 321 321 322 323 323 323 323 323 323 323 324 324 324 325 325 325 326 327 325 324 326
314 314 313 314 313 313 313 313 312 312 313 312 312 312 312 312 311 311 311 311 311 311 310 311 311 311 311 311 312 312 312 312 313 313 313 313 313 313 312 311 312 312 312 311 311 310 310 311 311 312 313 314 315 316 317 317 317 319 321 321 321 321 321 321 321 321 323 324 323 323 323 323 323 323 324 325 324 324 324 323 325 325 325 324 323
314 314 314 314 313 313 313 313 312 312 313 313 312 312 312 312 311 311 311 311 311 311 311 310 310 311 311 311 312 312 312 312 313 313 313 313 313 313 312 311 312 312 312 311 311 310 310 310 310 310 311 313 314 315 316 317 318 319 320 321 321 321 321 321 322 322 322 323 322 322 323 323 323 322 324 325 324 324 323 322 323 324 325 325 323
313 314 314 313 313 313 313 313 313 313 313 313 313 313 312 312 311 311 311 311 311 311 311 310 310 310 311 311 311 312 312 312 312 313 313 313 313 313 312 312 312 312 312 312 311 310 309 309 310 310 310 312 313 314 315 317 319 320 320 321 322 321 320 321 321 322 323 322 322 323 323 324 323 323 324 324 324 324 322 321 321 322 323 323 323
313 313 313 313 313 313 313 313 313 313 313 313 313 313 312 312 311 311 311 311 311 310 310 310 309 310 310 311 311 311 311 312 312 312 313 313 313 313 312 312 312 312 312 312 311 310 309 309 309 310 310 311 313 314 315 316 318 320 320 321 321 321 321 321 321 322 322 322 323 323 323 324 324 323 323 324 324 324 322 320 320 321 322 321 321
314 313 313 313 313 313 313 313 313 313 313 313 313 313 313 312 311 311 310 311 310 310 310 309 310 311 311 311 311 311 311 311 311 312 312 313 313 313 313 312 312 312 312 312 311 310 309 309 309 309 310 310 312 313 315 316 316 318 320 321 321 322 322 322 322 322 322 322 323 323 323 323 323 323 323 325 325 324 321 319 319 320 321 321 322
314 314 314 313 313 314 313 314 314 313 313 313 313 313 313 313 312 311 311 310 310 310 310 310 310 311 312 312 312 311 310 311 311 312 312 313 313 313 313 312 312 312 312 312 311 310 309 309 309 309 309 310 311 312 313 314 315 317 319 321 322 322 322 322 322 323 323 323 323 323 323 323 323 324 324 324 326 325 323 320 319 320 321 323 324
314 314 314 314 314 314 314 314 314 314 313 313 313 313 313 313 313 313 311 310 310 310 310 310 310 310 311 312 313 312 311 311 311 311 312 312 313 313 312 312 313 312 312 312 311 310 309 309 309 309 309 310 311 312 312 313 314 316 318 320 322 322 322 322 322 322 322 322 322 322 323 322 323 323 323 324 325 325 324 323 323 324 324 325 324
314 313 313 314 314 314 314 314 314 314 314 313 313 312 312 312 313 313 312 311 310 310 309 309 309 310 312 313 312 312 312 312 312 312 311 312 312 313 312 312 313 313 312 312 311 310 309 309 309 309 309 309 310 312 312 312 313 315 318 321 322 322 322 322 322 322 321 321 321 322 322 322 323 323 323 323 323 323 324 324 324 325 326 325 324
313 313 313 313 314 314 314 314 314 314 314 314 313 313 312 312 312 312 312 311 310 310 309 309 309 309 311 312 312 312 312 312 311 312 311 312 312 312 312 312 313 313 312 312 311 310 309 309 309 309 309 309 310 312 312 312 313 314 318 322 322 321 322 322 321 322 321 321 321 321 321 322 323 322 322 323 323 323 323 322 322 324 327 326 325
314 313 313 313 313 314 314 314 314 314 314 314 313 313 312 312 312 312 312 311 310 309 309 308 307 306 307 310 311 311 311 311 312 312 311 312 312 312 312 312 312 313 312 312 312 311 309 309 309 308 309 309 309 311 312 312 312 314 317 321 322 321 322 322 321 321 321 322 322 322 321 322 323 323 322 322 323 323 323 323 324 326 327 327 325
314 314 313 313 314 314 314 314 314 314 314 313 313 313 312 312 312 312 312 311 309 309 308 308 306 305 305 307 309 309 309 310 311 311 312 312 312 312 312 312 312 313 312 312 312 311 309 309 309 308 308 308 309 310 312 312 313 314 317 320 322 322 322 322 322 322 322 322 322 322 322 322 323 323 322 322 323 324 324 324 326 327 327 327 327
314 314 314 313 313 314 314 314 314 314 313 313 313 313 312 311 311 311 311 310 309 308 308 307 307 307 306 307 308 308 309 309 310 310 311 313 312 312 312 312 312 313 313 312 312 311 309 309 309 308 308 308 309 310 312 312 313 315 316 319 321 322 322 323 322 322 322 322 322 323 322 322 323 323 322 322 324 325 325 324 326 326 326 327 328
314 313 313 313 312 313 314 314 313 314 313 312 312 312 311 311 311 311 311 310 308 308 307 306 307 307 307 307 307 308 308 308 308 308 309 312 312 312 312 312 312 312 313 312 313 311 310 309 309 308 308 308 308 310 311 312 312 313 316 318 320 321 321 322 322 322 322 322 323 323 323 322 322 323 323 323 324 325 326 325 326 326 326 326 327
313 312 312 312 312 312 313 313 313 314 313 311 311 311 311 311 311 311 311 310 308 308 307 305 306 307 307 307 307 306 306 307 307 307 308 310 311 311 311 312 312 312 312 312 313 312 310 309 309 308 308 308 308 309 310 311 312 312 314 317 318 319 320 319 319 321 322 323 323 323 323 323 323 323 323 324 324 325 325 325 325 325 326 326 326
312 311 311 312 312 313 313 313 313 314 313 311 310 311 311 311 311 311 311 310 308 308 306 305 305 306 307 307 306 306 306 306 306 307 307 309 310 310 311 311 312 312 312 312 312 313 311 309 309 308 308 308 308 308 309 310 312 312 313 316 317 318 318 318 318 320 322 323 323 323 323 323 324 324 324 325 325 326 325 324 325 325 325 325 325
311 311 311 312 312 312 312 312 313 313 312 310 310 310 311 310 311 311 311 309 308 307 305 305 306 306 306 307 306 306 306 306 306 306 307 307 308 310 310 311 311 312 312 312 312 313 312 310 309 308 308 308 308 309 309 310 311 311 313 316 316 316 317 318 320 322 323 323 323 323 324 324 325 325 325 325 325 326 325 325 325 325 324 324 325
311 311 312 312 311 311 312 312 313 312 310 309 309 310 310 310 310 311 311 309 308 306 305 305 306 306 307 307 306 306 306 306 306 306 306 306 307 309 310 310 311 312 312 311 312 312 312 311 309 308 308 308 308 308 308 309 310 311 313 315 316 317 317 318 321 322 322 323 324 324 324 325 325 325 325 325 325 326 325 325 325 324 323 325 326
311 311 312 312 311 311 312 312 312 310 309 309 309 310 310 310 310 310 310 309 306 305 304 305 305 306 307 307 306 306 306 306 306 306 306 306 307 308 309 310 311 312 312 312 311 312 313 312 310 308 308 308 307 308 308 308 308 310 313 314 314 316 317 319 320 321 321 322 324 324 324 325 325 325 325 325 326 326 325 325 325 325 324 326 327
311 310 311 311 310 310 311 311 310 309 309 309 309 310 310 310 310 310 310 308 306 305 304 304 304 304 306 307 307 306 307 307 307 307 306 306 307 307 308 310 312 312 312 312 312 312 312 312 310 309 308 308 307 307 308 308 308 309 311 313 313 314 316 318 319 320 320 321 322 323 323 324 325 325 325 325 326 326 325 324 325 325 325 325 325
310 310 310 310 309 309 309 309 309 308 307 308 309 309 309 309 309 310 309 307 306 305 305 305 304 303 304 306 307 307 306 307 307 307 307 307 307 308 308 309 311 313 312 312 312 312 312 312 311 309 308 308 307 307 307 307 307 308 309 311 312 313 314 316 316 318 319 319 320 322 322 322 323 323 323 324 325 325 324 324 324 323 324 324 324
310 309 309 309 309 309 308 308 308 306 305 307 309 309 309 309 309 309 309 307 306 306 305 306 306 304 303 304 306 307 306 307 308 308 308 308 308 309 309 309 310 312 313 312 312 312 312 312 311 309 308 308 307 307 307 307 307 307 307 308 310 311 312 314 315 315 316 316 317 319 320 321 321 321 321 322 323 323 324 323 323 322 322 322 321
310 309 309 308 308 308 308 308 306 303 304 307 309 308 308 308 309 309 309 307 307 306 306 306 305 305 303 302 304 307 307 307 308 308 308 308 308 308 309 309 309 311 312 312 312 312 311 311 311 310 309 308 308 307 306 307 307 306 306 306 308 310 311 313 313 314 315 314 315 316 318 319 319 320 320 320 320 321 321 320 320 319 319 318 318
310 309 308 308 308 307 308 307 304 303 305 307 308 308 308 308 308 309 309 307 307 306 306 306 305 305 304 302 301 305 307 307 308 308 308 308 308 308 308 308 308 310 310 310 312 312 310 310 311 311 309 308 308 307 307 307 307 306 306 306 306 307 309 311 312 313 314 314 314 315 315 315 316 317 319 318 318 318 318 317 317 318 318 318 317
310 309 308 308 308 307 307 306 303 303 306 307 307 308 307 307 308 308 309 308 307 306 306 306 306 305 305 302 300 304 307 307 307 308 307 307 308 308 308 307 307 308 309 310 312 312 310 309 310 311 310 308 308 308 307 307 307 306 306 306 305 305 307 309 310 311 312 313 314 315 314 314 314 315 316 317 316 316 317 317 317 318 318 318 318
310 309 308 308 307 307 307 305 302 302 305 307 307 307 307 307 307 307 308 308 307 307 306 307 306 304 304 302 299 302 306 307 307 307 307 307 307 307 307 307 306 307 307 308 310 310 309 308 309 310 310 309 308 308 308 308 307 307 306 306 306 305 305 306 307 309 310 312 313 314 314 314 314 314 315 316 316 315 316 317 316 317 317 317 317
309 309 308 308 307 307 307 304 301 302 305 306 306 307 307 307 306 306 308 308 307 307 307 307 306 304 302 301 299 302 306 307 306 307 307 306 306 306 306 306 306 306 306 306 307 308 307 307 308 309 310 309 308 308 308 308 308 307 307 306 306 305 305 305 305 306 308 310 311 312 312 312 313 313 314 314 315 315 315 315 315 315 315 315 315
310 309 308 308 307 307 307 303 300 301 303 305 306 307 306 306 306 304 304 305 306 306 306 306 306 303 301 300 300 302 306 307 306 306 307 306 306 306 305 305 305 305 305 305 305 305 305 306 308 308 309 309 309 308 308 308 308 308 307 307 306 305 305 305 305 305 306 307 309 309 310 310 310 311 311 312 312 313 313 313 313 314 314 314 314
310 309 308 308 307 307 307 304 300 299 302 304 305 306 306 305 304 302 300 301 302 304 305 306 305 302 300 300 301 303 307 308 307 306 306 306 306 306 305 305 305 305 304 304 304 304 305 306 307 308 308 309 309 309 309 309 308 308 307 306 306 305 305 305 305 305 305 306 306 307 308 307 307 307 308 308 309 310 310 311 311 312 312 312 313
309 309 308 308 307 307 307 306 301 298 300 304 305 305 305 304 302 300 299 300 300 301 302 303 302 300 299 300 302 306 307 308 308 307 307 307 306 306 306 305 305 305 304 303 303 304 306 307 307 308 308 309 309 310 309 309 309 308 307 306 306 306 305 305 305 305 305 305 305 306 306 306 306 306 306 307 307 307 308 309 309 309 309 310 311
309 309 308 307 307 307 307 307 303 298 297 301 304 305 305 305 303 302 301 301 301 299 298 298 299 299 299 300 304 307 307 307 308 308 308 307 307 306 306 306 305 305 305 304 303 304 305 306 307 307 308 308 309 309 310 310 309 308 307 307 306 306 306 305 305 305 305 305 305 305 305 305 306 306 307 307 307 306 306 306 307 307 307 307 308
309 309 308 307 307 307 306 306 306 301 296 297 302 304 305 305 304 303 303 302 302 301 297 296 298 299 299 301 305 307 307 307 307 308 308 308 307 307 307 307 306 305 305 304 303 303 304 305 306 306 307 307 308 309 310 309 308 307 307 307 306 306 306 306 306 305 305 305 306 306 306 306 306 307 307 307 307 306 306 306 306 306 306 306 307
309 309 308 307 307 307 306 306 307 304 298 294 298 303 304 305 305 305 304 303 303 302 299 296 297 299 299 301 304 306 306 306 307 308 309 308 308 307 307 307 307 306 305 304 303 303 303 304 305 305 306 307 307 308 309 309 308 308 307 307 307 306 306 306 306 306 306 306 306 307 306 307 307 307 307 307 307 307 306 306 306 306 307 307 307
309 309 308 308 307 307 307 306 306 306 301 294 295 300 302 303 304 304 304 304 303 303 302 298 295 298 300 300 302 303 304 306 307 307 308 309 308 308 307 307 307 306 305 305 304 303 304 304 305 305 306 306 306 307 308 308 308 308 307 307 307 306 306 306 306 306 306 305 306 306 306 306 306 307 307 307 307 307 307 307 306 306 307 307 306
310 309 308 308 307 307 307 306 306 306 303 297 293 297 301 302 302 303 303 304 303 302 303 300 295 297 300 300 301 302 302 305 307 308 308 308 308 307 306 306 307 306 306 305 304 304 304 304 305 305 306 306 306 306 307 308 308 307 307 307 307 307 306 306 306 306 306 305 305 305 305 306 306 306 307 306 307 307 307 307 307 306 306 306 306
310 309 309 308 308 307 307 306 306 306 305 299 293 295 300 302 302 302 302 303 303 302 302 299 294 297 300 300 301 301 302 304 306 307 308 308 307 306 305 305 306 307 306 305 305 305 305 305 305 305 305 305 305 305 306 308 308 308 307 307 307 307 307 307 306 306 306 305 305 304 304 305 305 305 305 305 306 307 307 307 308 307 307 306 307
310 309 309 308 308 307 307 306 306 305 305 302 294 292 298 302 302 302 301 303 303 302 302 298 294 297 300 300 301 302 302 303 305 306 307 307 306 305 305 305 306 307 307 306 306 305 305 305 305 305 305 305 305 305 306 308 309 308 307 307 306 307 306 306 306 306 306 306 305 305 304 304 305 305 304 304 304 306 307 308 308 308 307 307 308
309 309 309 308 308 308 307 307 306 305 306 304 296 291 295 300 302 301 301 303 302 302 302 297 295 298 300 300 301 302 302 303 304 305 306 306 305 305 306 306 306 307 307 306 306 305 305 305 305 305 305 304 305 307 307 308 309 308 307 307 307 307 307 307 307 306 306 306 306 305 305 305 305 305 304 304 305 305 306 307 308 308 308 308 308
309 309 309 308 308 308 307 307 306 305 305 304 297 291 291 296 300 301 302 303 302 302 301 296 295 299 299 299 300 301 302 303 304 304 305 305 305 306 306 307 307 306 306 306 306 305 305 305 305 305 305 306 307 308 309 309 309 308 307 307 307 307 307 307 307 307 307 306 306 306 305 305 305 305 304 305 306 305 305 306 308 309 309 309 308
309 309 309 309 309 308 307 307 306 305 305 302 296 291 290 294 298 301 303 303 302 302 299 295 296 299 298 298 299 301 302 303 304 304 305 305 305 306 307 307 306 306 306 305 305 305 305 306 305 305 306 307 309 309 310 310 309 308 308 307 307 307 307 307 307 307 307 306 306 306 306 305 305 304 304 305 306 306 305 306 307 308 309 309 308
309 309 309 309 309 308 307 306 305 305 304 300 295 291 291 295 299 302 303 302 302 302 298 294 296 298 297 297 299 300 302 303 304 304 305 305 306 306 306 306 306 306 305 305 305 305 305 306 306 306 306 308 309 310 310 310 309 308 307 307 307 307 307 307 307 307 307 307 306 306 306 305 305 304 304 305 306 305 305 305 306 307 308 308 308
308 308 309 310 308 308 307 306 306 305 302 297 293 290 290 294 299 302 302 301 302 301 296 294 297 297 296 297 299 301 302 302 303 304 304 304 305 305 305 306 306 306 306 306 305 305 305 306 306 306 307 308 310 310 310 309 309 308 307 307 308 308 307 307 307 307 307 307 307 306 306 305 305 305 304 305 304 304 304 305 305 306 307 307 308
308 307 309 310 309 308 307 306 306 304 299 294 291 290 290 292 297 302 302 301 302 300 295 295 297 296 295 297 299 301 301 301 302 303 304 304 305 305 305 305 305 306 306 306 306 305 305 306 306 307 307 308 308 309 309 309 309 308 308 308 308 308 308 308 308 307 308 308 307 307 307 306 306 305 305 305 304 304 304 304 305 305 306 306 306
307 306 307 309 309 308 307 307 306 304 299 293 290 291 290 290 295 300 301 301 301 297 294 296 297 295 295 297 299 300 301 300 301 302 303 304 304 304 305 305 304 305 306 307 306 305 304 305 306 306 306 306 306 307 308 309 309 309 309 308 308 308 308 308 308 308 308 308 307 308 308 307 307 306 306 305 305 304 303 303 304 304 305 305 305
Wind_Speed
12 13 14 15 16 16 16 16 16 16 15 15 16 16 16 16 16 17 16 15 14 14 13 12 11 10 11 13 14 15 16 17 19 20 21 21 22 22 23 27 27 26 26 25 23 24 27 29 29 31 33 33 31 28 27 27 25 24 25 24 24 25 27 29 29 28 27 27 27 27 27 27 27 27 27 27 28 29 30 31 31 32 34 34 32
12 12 12 14 15 16 16 16 16 16 16 16 16 16 16 15 16 16 16 16 16 15 14 13 11 10 10 12 14 15 16 17 18 20 21 21 22 21 22 27 29 28 28 26 25 26 28 29 30 32 34 33 31 28 27 26 25 24 24 23 23 24 25 27 29 30 28 28 27 27 27 27 27 27 27 27 28 28 28 29 31 33 35 35 34
11 11 11 12 13 15 16 16 16 16 16 16 16 16 16 16 17 17 17 18 18 17 17 15 13 11 11 12 13 14 15 16 17 18 20 21 22 22 23 26 29 30 30 28 27 28 29 30 31 33 35 34 31 29 27 25 24 24 23 23 23 23 24 26 28 29 29 28 27 26 27 27 27 27 27 27 27 27 27 28 30 33 34 34 34
12 11 11 11 12 14 15 16 17 17 17 16 16 16 17 17 18 19 19 19 19 19 18 17 15 13 12 12 13 14 14 15 16 17 19 21 22 23 24 26 29 31 32 30 28 28 29 30 32 33 33 33 32 30 29 27 25 23 22 23 22 22 23 24 26 28 29 28 27 26 26 26 27 26 26 26 26 25 25 27 27 30 31 31 31
13 13 11 11 12 13 14 15 17 17 17 16 16 17 18 19 19 20 21 21 21 21 20 19 17 15 14 13 13 13 14 14 15 17 19 20 22 23 23 25 29 32 34 33 31 30 29 30 32 32 32 32 32 31 30 29 26 24 22 22 21 20 21 22 23 25 27 27 26 25 24 25 26 26 25 25 24 23 23 24 25 27 28 28 27
13 13 12 12 12 13 14 15 17 17 17 17 16 16 18 19 20 21 22 23 23 24 23 21 18 16 15 14 13 12 13 13 15 17 18 20 21 22 23 25 29 32 34 35 34 32 30 30 32 32 31 31 31 31 31 29 26 24 22 21 20 18 19 20 22 23 25 26 26 25 24 25 25 25 25 24 22 21 22 21 21 22 24 26 25
11 12 12 12 13 13 14 15 16 16 17 17 17 17 18 18 20 20 22 24 25 25 25 23 20 17 16 15 14 13 13 14 15 17 18 20 21 21 23 25 28 32 35 35 36 35 32 31 32 32 31 31 31 31 31 30 27 24 22 20 18 17 18 19 21 24 24 25 26 25 24 24 24 25 23 22 22 20 19 19 18 18 20 22 21
8 10 11 11 12 12 12 13 14 16 16 17 17 18 19 18 19 20 20 22 24 26 26 24 22 18 16 15 13 14 16 16 17 18 18 20 21 21 23 25 28 32 35 36 35 36 34 31 31 32 31 31 31 30 30 30 26 23 21 19 17 16 17 18 20 23 23 22 22 22 22 23 24 25 22 21 23 20 17 16 17 18 17 17 18
7 8 9 10 12 12 11 11 13 15 16 16 16 18 19 19 19 20 20 20 22 26 27 25 24 20 16 14 13 13 16 18 18 19 19 20 21 21 23 25 28 32 35 36 35 36 36 33 32 32 31 31 31 30 29 26 25 24 21 17 17 16 17 18 18 20 20 19 20 21 21 22 24 25 22 21 22 20 19 18 18 17 15 14 15
7 7 8 9 10 11 11 11 13 15 16 16 16 18 19 20 19 19 19 19 20 24 26 25 25 21 16 14 13 11 13 18 19 19 20 22 23 22 22 25 27 31 35 36 36 35 37 36 34 35 34 32 31 31 28 24 24 25 21 17 15 15 16 17 17 17 17 18 19 21 21 21 23 24 22 21 20 20 22 20 18 16 14 14 15
7 7 7 8 9 11 11 11 13 15 16 17 16 18 19 20 20 19 19 18 18 22 23 24 25 23 18 14 13 12 10 16 19 19 20 22 23 22 22 25 28 31 34 36 36 36 36 37 36 36 36 33 31 31 30 26 26 27 23 19 15 12 13 14 14 14 15 17 18 19 20 20 22 24 23 21 21 22 21 18 18 18 17 17 17
6 7 7 8 9 11 12 12 13 14 16 16 16 17 19 20 20 20 20 18 18 20 21 23 25 23 21 17 15 12 8 13 20 20 21 22 23 23 23 25 28 30 33 35 36 36 37 37 36 35 35 34 33 33 31 28 27 29 26 20 17 13 11 10 11 13 14 16 17 18 19 20 22 24 23 23 23 24 23 19 18 20 20 20 20
5 7 7 8 8 10 11 13 14 14 15 14 15 16 17 18 19 20 20 19 18 19 21 23 23 21 20 21 19 14 8 12 20 22 20 22 23 24 24 24 27 29 32 34 36 37 37 37 36 35 35 35 36 35 34 31 30 31 26 21 17 13 10 9 9 10 12 13 16 17 17 17 19 20 21 22 22 22 24 22 20 21 21 21 22
4 6 7 8 8 8 10 12 13 14 14 13 14 15 16 17 18 19 19 19 17 18 21 19 17 15 11 13 16 16 12 10 19 24 22 23 24 25 25 24 26 29 30 33 35 37 37 38 37 36 35 35 36 38 38 35 32 31 26 22 17 11 8 7 7 7 9 10 12 14 14 15 18 17 18 21 21 20 21 23 23 22 21 20 22
4 6 7 7 8 8 9 10 11 12 13 13 15 16 16 16 17 18 18 19 16 16 20 17 16 14 7 5 6 10 11 11 22 28 22 23 24 24 25 24 24 27 29 32 35 37 37 39 39 37 36 34 35 39 40 37 32 31 28 22 17 11 6 5 6 6 8 9 9 11 12 15 17 16 17 18 19 20 21 21 21 21 20 21 22
4 5 6 6 7 8 9 10 10 11 12 12 14 16 16 15 16 17 16 17 16 15 18 17 17 14 5 2 2 3 6 8 18 22 20 22 22 23 25 24 25 27 29 30 34 36 37 39 39 38 36 32 34 38 40 39 34 33 33 24 16 10 7 5 3 4 6 8 9 11 12 14 14 15 18 18 18 19 19 18 19 20 20 21 24
3 5 6 6 7 8 9 10 11 11 12 11 12 14 15 14 16 17 15 15 14 13 16 17 17 15 8 3 2 2 4 7 11 13 18 21 20 22 25 24 25 25 28 29 32 36 36 38 39 39 37 31 33 38 40 41 36 35 37 26 12 9 7 4 2 2 4 6 8 10 12 13 14 15 18 18 19 19 16 16 19 19 19 21 24
2 4 6 6 7 8 9 11 11 11 12 12 11 12 14 14 14 15 14 13 13 12 13 16 16 16 14 8 2 3 6 8 7 8 15 17 16 21 23 25 26 24 27 28 30 35 36 37 38 39 37 31 32 38 40 42 37 35 38 28 12 8 7 4 2 1 4 7 8 8 10 13 14 14 15 16 18 18 16 17 18 18 20 22 23
2 4 6 7 7 8 9 10 11 11 12 12 12 11 13 13 13 13 13 11 12 11 11 13 14 14 16 14 10 8 7 7 5 5 10 11 16 21 20 23 25 24 27 27 28 32 35 36 37 38 38 32 31 37 40 42 40 37 39 33 20 11 8 5 3 2 2 6 8 9 11 13 14 13 13 14 15 15 15 15 16 18 20 22 23
3 4 6 7 8 8 8 9 11 12 12 12 12 12 13 13 12 12 11 10 10 12 11 12 11 12 15 16 15 15 11 6 6 7 6 6 12 17 21 25 24 23 26 26 26 29 33 35 36 37 37 33 31 36 40 42 42 39 38 36 29 21 16 12 7 4 3 4 7 10 12 14 14 12 11 11 11 12 15 16 17 18 19 20 21
4 5 7 8 8 8 7 9 11 11 11 11 12 12 12 12 12 12 11 8 9 11 12 13 12 12 14 15 15 16 13 7 7 9 6 5 7 9 16 23 23 23 26 26 24 27 31 33 35 36 36 33 32 35 39 41 40 38 36 34 33 30 27 24 17 9 5 5 6 9 11 12 12 10 9 10 10 12 15 18 19 20 20 22 22
4 6 7 7 8 8 7 10 12 11 9 10 11 11 10 10 11 11 10 8 8 11 12 13 14 14 14 15 14 13 9 5 7 10 7 5 6 6 9 13 14 18 24 26 23 24 29 33 35 37 36 33 32 33 36 39 39 37 35 33 32 32 30 30 29 20 7 6 7 9 10 10 10 9 9 10 12 13 14 14 16 19 20 22 22
6 7 7 7 8 8 8 11 12 9 8 9 10 10 10 9 10 10 9 7 9 11 12 13 14 15 15 15 15 12 8 5 8 10 7 4 6 7 8 12 11 12 19 24 23 23 26 31 34 36 36 33 32 33 34 37 39 39 37 34 32 32 31 30 32 29 15 4 8 8 9 9 10 10 12 13 13 13 13 11 12 15 17 21 23
6 6 7 8 9 9 10 11 11 7 7 8 9 9 9 9 10 10 8 6 9 12 12 13 13 14 15 15 16 15 13 10 10 10 8 8 8 5 7 12 10 11 18 21 20 22 23 28 32 34 34 33 32 33 34 36 37 39 40 39 35 32 32 30 30 32 20 2 9 7 8 10 11 12 13 14 13 12 12 12 13 15 20 24 26
6 8 9 9 10 10 11 10 8 6 6 8 8 8 8 9 10 9 7 7 10 11 12 12 13 14 15 16 17 17 16 15 13 11 10 10 8 6 7 10 7 10 17 17 16 18 20 24 29 31 33 32 30 32 34 33 33 37 40 41 39 34 33 33 34 36 27 13 12 8 8 9 11 14 14 14 15 15 15 17 19 19 22 27 30
7 9 9 9 9 10 9 7 6 6 8 9 8 7 7 8 9 9 6 7 9 11 11 12 13 13 15 16 18 19 18 16 15 13 12 10 9 7 8 8 6 7 11 14 14 15 18 21 25 30 29 28 30 30 31 31 30 34 39 40 41 39 35 35 38 39 35 27 19 12 11 11 11 13 14 16 18 19 20 22 24 24 26 29 33
8 9 8 8 8 8 7 6 7 9 9 9 8 6 6 7 9 8 5 7 9 11 12 14 15 16 15 16 18 20 20 18 16 15 13 11 10 9 8 6 6 6 7 11 12 14 17 18 20 27 25 22 26 27 27 29 28 32 38 40 42 42 39 37 38 39 38 35 30 25 22 19 17 17 17 18 20 22 23 24 27 30 32 33 33
7 8 8 6 6 6 7 8 10 11 11 9 7 5 5 6 8 7 4 6 9 10 13 15 17 19 17 17 18 20 21 19 17 16 15 13 11 10 8 5 5 6 6 8 9 11 19 18 15 23 25 22 22 21 23 29 29 30 36 38 39 42 41 40 39 39 40 38 36 35 34 32 30 27 24 22 26 28 26 26 28 31 35 37 36
6 8 7 6 6 6 8 11 13 13 12 8 5 4 6 7 8 6 3 6 8 9 12 15 17 19 19 19 19 20 21 20 18 16 16 16 14 13 10 6 5 5 5 7 6 7 16 17 13 18 24 23 23 21 22 26 28 28 32 35 37 39 40 41 40 39 39 39 39 39 38 37 34 32 30 26 29 34 33 32 33 32 36 41 40
5 7 6 6 7 8 10 13 14 13 10 7 5 4 6 7 7 5 3 5 6 8 11 13 16 18 20 20 20 20 21 20 19 17 17 17 17 16 14 11 8 5 3 5 5 6 12 15 13 15 20 20 22 24 22 24 27 29 31 32 34 35 36 39 40 39 38 38 40 41 41 40 37 35 34 32 32 36 37 37 36 34 37 40 39
4 6 6 6 8 9 11 14 14 12 9 6 5 5 6 7 7 4 2 3 6 7 10 13 15 17 19 21 21 20 21 21 19 18 18 18 18 18 17 16 14 10 5 4 4 7 11 14 12 13 16 17 20 22 22 23 27 29 30 29 28 32 35 36 37 38 39 40 40 40 38 38 38 37 37 36 35 36 38 37 35 35 36 36 35
4 5 6 6 8 9 12 14 12 10 8 7 5 5 6 7 7 6 3 2 5 7 9 12 14 15 18 20 20 20 20 20 20 19 18 18 19 19 19 18 17 15 11 6 4 6 10 15 14 11 13 16 18 19 18 21 25 28 29 27 25 28 33 34 34 35 36 39 40 39 38 36 36 36 36 37 36 35 35 36 36 35 34 33 32
5 5 5 6 7 9 11 13 11 9 8 7 6 6 6 7 8 7 5 3 4 6 9 12 14 15 17 18 18 18 18 19 20 20 20 20 20 21 21 21 20 18 15 10 5 5 9 15 16 12 11 14 17 17 16 17 22 25 27 27 26 26 27 29 32 33 33 34 35 36 36 36 36 36 35 36 35 33 33 35 36 35 34 33 31
5 4 5 6 7 8 11 12 11 8 8 7 6 5 6 7 8 9 7 6 6 7 9 12 13 14 16 16 16 17 17 17 18 19 20 21 22 22 22 22 21 18 15 11 7 5 7 13 16 14 12 12 13 16 17 17 20 23 24 26 27 27 26 27 30 31 32 31 32 32 32 32 33 34 34 34 35 34 33 34 34 34 33 31 30
5 4 4 5 6 8 11 12 11 8 7 7 6 5 5 7 9 10 9 8 8 9 10 12 13 14 15 15 15 16 15 15 17 18 18 20 22 22 23 23 22 19 15 11 9 7 6 9 14 14 12 9 10 14 16 17 19 20 22 23 25 26 27 27 27 28 29 30 30 30 30 29 30 30 30 31 31 30 30 29 29 29 28 27 27
4 3 4 5 5 7 10 12 11 8 7 7 6 4 5 7 9 10 11 10 10 10 11 11 12 13 14 15 15 15 15 14 15 17 17 18 20 21 22 23 23 21 17 13 10 8 7 8 11 14 13 9 8 10 13 15 17 18 19 20 21 24 27 27 25 26 28 30 30 30 30 30 30 30 29 29 28 26 26 25 25 24 24 23 24
4 4 4 4 5 6 8 11 11 9 6 6 5 4 4 7 9 10 11 12 11 11 11 11 12 12 13 14 14 14 14 13 14 16 16 17 18 19 21 22 23 23 20 16 11 9 8 9 10 13 14 12 9 7 9 13 15 16 19 20 19 21 24 25 25 26 28 29 29 29 30 30 30 30 30 30 28 26 25 24 24 23 23 23 23
5 4 4 5 5 5 7 9 11 10 7 5 4 3 3 6 8 9 10 11 12 13 13 11 11 11 12 12 12 13 13 13 13 14 14 15 16 17 18 20 22 24 23 19 13 10 9 10 11 12 13 13 12 8 8 11 14 15 18 19 19 20 20 21 22 25 27 29 29 29 29 29 30 31 32 32 31 29 27 26 25 25 24 23 22
5 5 5 5 5 5 6 8 10 10 8 5 3 3 3 4 6 7 8 9 11 14 15 13 11 11 11 10 10 12 12 12 13 12 12 13 14 15 16 17 19 23 24 21 15 12 11 11 12 12 13 14 14 12 10 12 15 16 17 17 18 19 18 18 19 22 26 27 27 28 28 28 30 32 32 33 33 32 31 29 27 26 25 24 23
6 5 5 5 5 5 6 7 9 10 9 6 3 2 2 3 4 5 7 8 10 12 14 14 12 11 10 9 9 10 11 11 10 10 10 11 12 14 15 15 17 21 23 22 17 14 13 12 12 12 12 14 15 15 14 14 15 15 16 16 16 17 18 17 16 18 22 26 27 28 27 28 30 32 32 31 30 29 29 28 26 24 24 24 24
7 6 5 6 6 6 6 7 8 10 10 7 4 3 2 2 4 5 6 7 9 10 13 15 13 11 10 9 8 9 10 9 7 7 8 9 10 12 14 14 15 18 21 21 18 16 14 13 13 13 12 12 14 15 14 13 12 13 14 16 16 16 18 20 19 18 19 22 26 28 29 28 29 30 30 29 27 25 26 26 25 23 22 22 22
8 7 7 7 7 7 6 6 7 9 10 9 5 3 3 2 3 5 6 6 7 9 11 14 14 10 10 10 8 8 9 9 7 6 6 7 9 10 12 13 12 15 19 18 16 17 16 13 13 13 11 11 12 13 11 9 11 12 13 14 14 14 16 17 19 19 20 21 22 26 27 28 29 30 29 28 26 25 25 24 22 22 21 21 21
9 9 8 8 8 8 7 6 7 8 9 10 7 4 3 3 4 6 6 6 6 8 10 13 13 10 9 10 9 9 9 9 8 7 6 7 9 10 11 11 10 12 15 16 14 16 17 14 12 12 12 12 12 12 9 9 11 11 11 12 13 13 14 12 11 14 18 20 20 22 24 26 29 31 30 29 27 26 25 22 20 21 22 22 22
11 11 10 9 9 8 8 7 7 8 9 10 8 5 4 4 5 7 6 5 6 7 9 11 11 9 9 10 10 10 10 10 9 8 7 7 8 10 10 10 9 9 12 14 14 14 15 14 12 12 13 12 11 10 8 8 9 10 12 15 15 15 15 14 12 12 16 18 18 20 22 23 27 30 29 28 27 26 24 21 20 21 22 22 21
13 13 11 10 10 9 9 8 7 8 8 10 9 7 5 5 5 7 6 5 5 6 7 10 9 7 9 10 10 10 10 10 9 8 8 7 7 8 9 8 9 9 11 13 13 13 14 13 12 13 13 11 9 8 6 6 8 11 14 16 16 17 17 16 16 15 15 16 16 18 19 20 23 27 26 25 25 25 23 21 20 20 20 21 22
15 15 13 12 11 10 10 9 8 8 8 9 9 8 6 5 6 6 5 5 5 5 7 8 7 6 8 10 11 11 11 11 10 8 7 6 6 7 8 9 10 10 11 13 14 15 15 13 12 13 14 12 8 6 6 7 9 12 14 15 16 18 17 15 16 16 14 13 13 14 14 15 19 22 23 23 23 24 23 22 21 21 21 22 24
17 15 14 13 12 12 10 10 8 7 8 8 8 7 6 5 5 4 4 5 5 5 5 6 4 5 7 9 10 10 11 12 12 9 6 5 5 6 7 9 9 10 12 15 17 17 16 13 12 12 14 14 10 8 8 7 9 12 14 16 18 18 17 15 16 17 16 14 12 12 11 13 17 20 21 22 24 24 23 22 21 22 23 24 25
18 17 16 15 14 13 11 10 9 8 8 9 8 7 6 5 4 4 5 6 5 5 4 3 3 5 7 8 9 9 10 11 12 10 6 4 4 5 7 8 8 9 11 13 16 17 14 12 11 11 13 13 10 9 8 9 10 12 16 18 17 16 16 15 14 16 17 16 15 14 13 14 17 19 20 23 25 24 24 24 23 24 27 27 27
20 20 19 17 15 14 12 10 10 8 8 8 8 6 6 6 5 5 6 6 6 5 3 2 4 6 7 8 8 8 9 10 12 11 8 5 3 4 6 6 7 8 9 10 13 15 12 10 9 10 11 10 8 8 8 10 11 13 16 16 13 12 13 12 10 12 14 14 15 16 15 14 16 18 20 23 25 23 23 25 26 26 29 29 28
21 20 20 19 17 15 13 12 10 9 8 7 7 6 6 6 6 7 8 7 6 5 2 3 5 6 7 7 7 7 8 10 10 11 10 7 5 4 5 5 6 7 7 7 11 13 11 9 9 9 10 9 9 9 9 9 9 11 13 12 10 11 12 10 9 10 11 12 13 14 14 13 14 16 18 20 23 22 20 22 23 25 26 26 26
22 20 19 20 18 17 15 13 12 10 8 7 7 6 6 6 7 8 9 8 7 5 3 6 5 4 5 5 6 6 8 9 10 10 10 9 7 5 5 6 7 8 7 7 9 12 12 11 10 11 12 12 12 12 10 8 8 7 9 9 10 11 12 11 10 9 7 7 9 10 10 11 11 11 11 10 12 15 18 20 20 21 22 22 22
Wind_Direction
43 50 51 47 47 45 43 41 38 35 31 27 23 17 13 13 13 12 14 15 15 10 4 358 348 341 336 335 338 343 346 349 352 355 355 354 354 357 0 359 352 342 337 335 335 335 333 332 330 328 326 324 320 315 311 308 302 295 288 282 274 268 261 255 251 248 245 244 243 242 242 241 240 239 238 239 239 240 241 241 238 235 234 234 234
46 52 49 44 43 42 41 38 36 33 29 26 22 18 16 16 16 15 17 17 17 14 8 3 356 348 338 333 335 336 337 341 346 351 353 354 354 356 357 358 354 348 345 342 338 337 334 332 333 331 329 327 323 318 314 310 306 300 293 286 278 271 263 255 250 247 244 242 240 240 239 238 238 237 238 238 239 240 240 241 238 234 233 232 230
48 49 43 40 39 38 38 36 37 36 34 30 27 26 25 25 23 21 20 18 17 16 12 7 2 356 346 340 338 337 338 340 345 348 351 354 356 356 353 353 354 353 353 348 339 337 335 333 335 334 331 329 324 320 317 312 308 302 295 288 280 272 265 255 248 245 242 240 239 239 237 237 236 235 237 239 240 241 240 240 237 233 231 229 226
45 41 36 37 38 37 37 38 38 39 38 35 33 31 30 29 27 24 21 18 16 15 13 9 6 2 356 350 345 343 344 345 348 351 354 357 358 358 354 352 354 355 355 350 342 339 339 337 337 335 333 330 326 322 320 316 310 304 297 291 281 272 268 258 250 246 242 239 237 237 238 236 235 234 236 239 240 239 238 237 233 229 227 225 221
44 40 38 38 38 38 40 41 39 39 38 36 33 31 28 25 23 21 19 16 14 13 11 9 8 7 3 358 353 350 349 350 355 357 358 360 0 359 356 354 356 357 356 353 348 344 343 342 338 336 334 330 328 323 320 319 313 308 303 294 284 273 271 261 252 249 245 242 238 234 235 235 234 233 234 236 236 233 233 231 227 223 219 218 219
46 45 44 44 43 43 43 40 38 37 36 35 32 29 26 22 18 16 16 14 12 11 8 6 5 7 8 5 2 359 356 358 0 359 360 1 2 0 357 357 358 359 357 354 353 350 347 344 340 337 335 332 329 325 324 323 318 313 308 297 286 274 269 259 246 242 239 240 239 234 231 231 232 232 231 232 232 229 228 223 218 218 212 210 214
48 48 48 49 45 43 40 36 35 34 33 32 29 27 25 23 17 13 13 13 11 9 7 5 3 4 8 9 10 10 7 8 4 359 1 2 2 1 359 0 2 2 358 355 354 352 349 345 343 341 338 335 333 331 330 327 322 318 313 301 288 275 268 260 244 234 230 232 234 232 230 228 227 228 227 227 227 226 224 216 211 216 210 202 203
45 47 45 45 40 38 34 31 30 29 28 26 25 24 20 19 17 13 10 10 9 7 6 3 1 1 5 9 14 16 14 15 12 6 5 4 2 1 0 3 4 4 1 356 353 351 350 347 345 344 341 339 337 336 334 329 325 323 319 307 294 281 267 259 246 234 229 231 231 232 231 229 226 223 223 223 219 219 220 217 218 222 215 201 197
37 38 37 35 31 32 29 26 23 23 23 21 21 20 17 14 14 12 8 8 8 6 3 2 360 359 1 6 11 15 17 19 19 15 11 8 5 1 0 4 5 6 3 359 355 352 352 351 349 348 347 345 343 341 338 333 330 329 325 315 301 290 274 258 244 232 229 231 229 228 226 227 227 219 218 218 210 209 210 211 223 231 225 211 203
34 30 28 26 25 25 24 21 18 18 18 18 18 16 14 12 10 11 9 8 9 5 1 360 358 356 357 1 5 10 18 20 20 19 15 10 7 3 1 4 6 6 5 2 359 356 354 354 354 354 354 352 349 347 343 339 341 339 331 321 308 295 287 272 249 231 227 228 226 225 222 222 221 215 214 213 207 206 203 201 211 223 227 221 214
33 28 25 24 25 25 24 21 16 16 16 16 16 14 14 12 8 9 10 12 13 8 3 1 358 356 355 358 1 2 10 17 17 16 14 10 8 4 3 5 6 6 6 4 2 359 358 357 357 357 357 356 355 353 350 346 350 349 338 327 317 300 292 281 257 237 231 229 226 224 220 216 214 212 210 208 206 205 201 195 198 207 219 224 222
29 24 23 23 27 27 26 23 18 16 16 16 15 13 13 12 9 8 8 12 17 14 10 6 1 356 356 357 357 359 3 9 11 11 10 9 7 4 4 4 5 5 4 4 4 2 2 -0 359 358 358 0 2 0 359 356 356 356 350 339 327 312 297 280 256 241 234 229 227 225 219 214 213 212 210 207 205 204 199 195 199 209 217 221 225
19 15 17 16 21 25 24 22 19 16 16 16 12 10 9 9 10 10 9 8 11 13 13 12 7 358 354 351 350 0 9 1 3 4 4 4 4 4 4 4 3 4 4 4 5 5 5 3 -0 360 360 2 5 6 8 6 359 355 357 354 339 322 306 285 263 250 240 232 228 225 219 216 216 215 212 208 206 205 201 199 204 214 216 218 223
14 11 10 8 11 17 18 17 15 14 14 12 8 6 4 3 5 10 13 9 8 11 13 18 14 357 345 341 342 354 1 353 352 357 1 -0 1 3 4 4 2 2 3 4 6 7 7 6 3 2 2 3 6 9 10 7 359 352 355 359 351 334 311 281 263 255 243 239 234 225 217 212 214 218 217 212 209 208 208 207 210 214 216 217 219
18 15 9 6 9 12 13 9 5 7 11 9 5 3 2 1 1 5 12 11 10 13 15 23 17 1 343 337 344 345 348 348 345 348 354 354 355 358 0 4 4 3 3 3 7 8 8 8 6 5 4 3 8 10 9 5 358 355 357 357 353 346 329 292 262 247 224 221 225 225 222 212 209 216 220 218 214 213 214 214 217 217 217 218 216
19 17 11 7 6 9 9 7 2 358 0 3 3 1 1 0 359 3 10 8 5 9 16 23 21 15 3 318 336 335 342 341 333 334 341 345 349 352 355 2 4 4 4 3 7 8 8 9 9 7 5 3 8 11 10 7 2 2 4 358 352 355 348 329 297 258 225 208 205 216 225 217 212 214 214 214 216 219 217 216 221 219 217 218 216
14 11 10 5 1 3 4 5 3 358 355 353 356 358 0 0 357 2 12 9 2 8 16 19 20 22 25 3 325 332 331 323 317 320 332 338 342 344 348 358 3 4 3 2 6 8 10 10 9 10 7 5 9 11 11 9 5 4 6 4 358 5 5 348 326 274 231 213 206 214 216 211 212 212 208 207 210 214 216 215 218 217 215 216 214
355 356 0 357 353 357 0 1 360 359 357 350 347 353 359 0 355 1 13 11 6 15 18 17 17 17 19 23 359 301 297 312 322 320 326 328 334 341 345 353 360 5 4 3 5 8 11 11 10 10 10 7 8 12 12 9 6 6 9 12 13 9 12 7 334 277 223 212 209 210 205 204 202 200 209 216 211 208 210 212 213 212 212 212 209
318 336 346 344 342 346 352 354 352 353 355 350 348 348 353 356 353 1 10 8 10 19 19 15 15 13 13 13 3 346 319 307 313 317 323 322 328 338 342 348 357 5 5 4 5 7 11 12 11 10 11 9 8 13 15 12 11 13 14 18 22 17 9 3 346 318 245 218 206 199 195 197 196 192 204 215 209 205 207 207 210 212 213 210 203
297 320 336 335 331 333 337 343 346 348 349 350 351 347 347 350 351 1 5 4 14 19 20 19 15 8 9 8 3 1 357 334 320 323 319 311 323 336 340 341 351 3 6 5 4 6 10 12 12 11 11 11 11 16 19 16 15 17 18 20 25 31 28 19 360 328 287 235 205 198 193 190 194 196 197 200 204 213 213 208 208 211 209 204 196
295 318 330 330 328 326 325 335 343 346 346 351 352 346 345 351 357 5 3 6 19 19 19 21 19 12 9 7 3 1 2 356 344 336 318 299 316 330 334 336 342 354 2 4 3 7 10 13 14 12 12 12 13 18 23 21 16 17 20 23 28 31 32 31 20 355 293 252 213 198 195 185 188 193 184 189 203 215 218 214 211 208 200 192 185
309 322 324 322 325 326 322 328 338 343 343 347 348 345 348 355 1 6 3 9 22 21 19 18 18 17 13 10 5 0 357 350 345 343 327 302 315 315 322 332 332 340 353 -0 2 6 10 15 16 14 13 13 14 17 23 23 19 20 25 28 32 30 26 27 22 11 339 258 224 200 193 180 180 184 177 190 203 207 210 211 207 200 188 178 170
311 319 320 321 326 330 327 328 333 337 335 338 342 346 352 353 355 0 2 16 24 20 19 17 16 18 16 14 9 3 358 339 331 338 333 310 320 318 320 328 318 321 344 356 3 7 10 15 18 17 14 14 16 18 21 25 24 25 31 34 36 33 26 24 20 14 6 259 210 191 183 173 172 176 176 184 196 200 197 194 196 185 169 161 155
308 318 328 332 334 336 332 327 327 325 325 335 341 345 349 347 350 357 1 20 25 20 21 20 19 19 17 16 11 7 3 352 339 335 330 318 316 304 312 326 321 320 338 352 4 7 10 16 19 20 17 15 18 21 23 27 25 27 34 38 36 35 32 27 22 18 19 115 173 162 167 170 170 176 177 176 178 180 169 163 170 164 150 146 143
316 330 338 339 342 344 338 328 323 323 334 341 340 341 346 347 354 1 5 21 26 25 25 23 19 16 14 14 13 10 7 2 356 347 341 330 320 307 311 322 318 321 335 348 359 3 8 16 20 22 21 18 20 23 25 26 25 28 37 40 37 36 35 34 32 29 36 89 135 140 154 157 155 161 162 155 152 149 142 145 151 149 142 137 132
330 338 344 345 348 349 345 340 340 341 344 344 337 339 347 349 357 3 11 29 32 28 26 21 16 12 11 13 14 13 10 8 5 360 355 342 326 320 321 322 321 325 336 347 358 5 4 9 18 23 22 21 23 25 24 23 24 31 39 41 39 38 37 39 41 38 43 67 91 115 144 148 143 143 142 139 141 140 137 139 141 139 138 134 129
337 344 348 350 350 350 349 349 349 347 345 341 334 337 346 349 356 0 15 36 34 31 30 27 20 14 10 11 15 16 14 12 9 7 6 356 340 332 326 322 331 337 340 348 2 12 4 360 14 22 21 21 24 25 24 23 25 34 42 43 42 41 40 43 47 45 46 54 67 85 100 104 108 114 125 137 140 136 133 134 136 137 135 129 123
339 348 352 348 346 348 348 347 347 344 339 333 328 340 356 355 355 358 23 43 37 38 36 30 23 17 12 11 15 17 16 15 13 12 13 10 3 351 338 318 320 335 344 350 0 9 4 1 9 19 22 24 23 25 26 26 27 36 44 46 44 44 43 45 48 49 49 49 57 72 79 80 83 89 103 124 130 125 122 123 126 128 125 120 115
339 351 352 341 339 344 347 349 348 342 334 326 328 353 6 5 0 1 39 48 39 41 35 25 19 14 12 13 15 17 18 17 17 18 19 19 17 13 6 346 318 318 336 348 356 1 1 4 9 15 22 27 27 28 28 27 29 36 44 47 48 47 46 48 49 51 51 48 51 63 74 77 76 79 85 95 106 111 110 109 111 112 111 110 110
335 349 346 333 336 343 348 352 351 345 338 332 338 359 10 12 8 8 54 53 36 36 29 21 16 12 10 12 13 16 18 18 20 24 26 26 24 23 22 18 4 355 335 329 352 9 359 2 12 15 16 22 30 33 32 31 31 36 42 45 48 50 50 51 52 53 55 54 53 58 67 73 71 72 78 80 84 92 97 99 101 103 103 105 106
327 343 344 335 336 342 350 354 352 349 348 345 349 3 11 17 15 11 43 49 29 28 23 15 13 9 7 8 11 16 18 19 23 28 30 31 29 26 26 27 24 17 2 317 337 10 5 1 10 19 17 20 31 35 34 35 35 36 39 40 43 50 53 52 52 54 57 59 58 58 62 67 67 67 74 80 79 81 87 92 94 96 98 100 102
320 334 337 335 338 344 353 356 353 353 355 354 357 5 13 20 20 12 15 32 23 21 16 9 7 6 4 4 7 14 18 21 25 30 33 34 32 29 27 27 27 21 13 359 333 348 6 10 14 21 21 23 32 33 28 33 37 38 40 39 39 46 53 54 53 54 57 60 62 64 65 68 70 70 72 78 81 80 83 87 90 91 92 94 97
314 325 328 333 339 348 356 358 355 356 358 359 1 6 15 23 24 20 15 6 6 6 2 359 1 3 3 1 2 11 19 24 28 31 35 36 34 32 28 26 27 23 16 10 347 333 1 15 22 29 30 27 30 31 27 29 35 37 41 42 41 43 48 53 54 54 57 61 63 66 68 68 72 76 77 79 84 86 86 86 87 88 89 89 91
312 315 320 331 340 350 360 1 358 357 359 1 4 9 20 27 29 28 21 5 350 348 349 352 359 2 0 359 2 10 18 26 30 33 35 36 35 32 30 27 25 22 16 9 360 350 354 9 20 30 38 36 32 35 36 35 36 38 40 43 45 46 48 51 54 54 57 61 63 66 68 67 70 75 78 80 84 87 87 88 88 90 91 92 93
315 305 307 326 338 350 1 2 359 357 358 3 6 14 32 35 32 28 21 8 351 343 344 349 358 0 358 0 5 8 14 24 30 32 34 35 35 32 30 28 25 21 16 11 9 11 358 4 18 24 27 33 36 39 41 41 40 39 41 45 47 49 51 53 54 55 59 63 64 65 66 67 68 71 73 77 80 83 85 87 88 90 92 95 98
312 293 293 312 330 346 358 2 1 357 357 4 6 19 39 37 32 28 23 17 5 354 348 348 355 359 359 3 7 6 7 17 27 30 30 31 31 31 28 26 25 21 17 15 17 22 16 8 17 21 20 24 33 37 42 43 41 41 47 50 48 49 54 57 58 59 62 66 68 68 68 67 67 68 68 70 73 77 79 81 84 88 91 94 96
304 288 288 298 314 337 352 360 3 0 356 2 6 20 40 36 34 33 29 26 19 9 358 352 355 2 3 3 6 6 4 10 22 25 25 26 26 27 26 24 23 23 21 20 21 27 25 15 15 20 21 25 33 38 39 39 40 45 53 55 52 53 56 58 58 60 62 65 68 70 71 70 69 69 68 67 67 70 75 79 82 86 90 93 94
294 287 283 286 298 325 345 356 3 3 355 351 356 10 32 33 34 34 29 25 22 17 10 3 1 5 7 4 5 8 5 5 15 19 19 22 23 24 23 20 20 22 24 23 23 27 23 17 19 19 18 24 31 31 33 39 43 49 54 55 54 56 56 54 55 59 62 66 68 70 71 71 72 72 71 69 68 69 76 80 81 83 87 90 93
283 285 280 280 290 313 337 348 357 1 358 342 336 347 4 18 24 23 18 14 15 16 14 10 8 9 11 8 6 10 7 5 10 12 12 17 20 20 18 16 17 22 26 25 24 28 23 17 19 15 14 24 31 34 44 53 53 53 55 55 53 54 54 52 53 60 67 72 73 73 75 75 76 76 74 72 71 71 75 78 79 81 84 86 89
272 279 275 275 283 300 323 338 347 356 357 344 315 304 327 351 357 357 358 359 2 8 11 11 8 8 14 13 9 11 10 9 10 8 7 10 12 13 12 12 14 22 28 28 26 28 26 20 15 9 10 20 28 36 47 53 51 50 57 60 57 57 57 56 55 58 67 72 71 72 75 76 78 79 78 76 75 75 77 78 78 78 79 82 84
265 269 264 267 274 284 305 324 337 347 351 345 322 281 284 325 341 338 335 340 347 353 3 8 5 5 14 14 11 12 13 16 17 8 7 8 8 9 8 6 11 21 29 31 30 29 27 22 14 8 10 16 20 25 34 49 61 61 62 64 64 64 65 65 61 59 65 70 68 68 69 72 75 76 76 74 73 76 78 77 77 77 77 80 80
257 258 255 259 264 272 288 307 324 337 343 341 329 288 269 293 330 333 319 317 333 342 354 3 3 5 15 16 14 11 9 18 23 15 9 0 359 9 7 0 7 20 28 33 33 28 26 22 12 7 8 11 14 17 24 53 73 68 65 66 66 66 68 69 64 62 67 70 68 67 67 71 74 73 71 69 68 71 73 73 75 76 78 83 85
248 248 248 253 257 264 276 291 309 324 334 338 330 297 268 276 308 327 315 298 315 334 349 1 3 6 16 20 20 12 6 15 23 22 12 352 351 2 2 357 6 19 26 32 32 25 22 20 11 7 5 2 7 17 31 63 71 67 71 76 73 67 64 63 60 59 65 70 70 69 67 68 71 70 68 67 66 68 69 67 72 79 82 85 89
242 243 245 249 254 260 267 277 295 310 323 333 330 302 272 267 289 315 311 285 296 324 347 360 2 9 22 26 27 21 13 16 23 24 12 353 351 355 352 358 15 24 23 26 26 21 18 16 10 6 3 358 2 15 35 66 70 74 85 86 81 75 69 69 69 61 65 72 73 72 68 66 68 68 66 65 67 70 69 66 73 84 88 87 89
239 241 244 249 252 254 260 268 284 298 312 326 328 309 279 262 278 304 302 274 280 312 342 357 2 15 28 28 29 27 20 18 24 23 10 355 354 356 358 18 37 37 27 24 22 17 15 17 14 7 4 359 0 19 51 78 81 89 96 92 87 83 79 77 72 64 68 76 76 75 71 65 66 67 66 67 70 71 70 71 77 84 86 86 87
235 237 241 246 248 250 257 264 276 291 306 321 324 312 286 262 270 292 281 254 268 302 337 356 8 27 33 29 26 23 20 21 24 21 9 359 357 5 24 49 54 42 32 27 23 17 18 25 22 14 15 14 17 51 84 94 98 104 106 102 96 91 85 80 75 70 74 81 83 81 70 60 65 67 65 69 75 74 71 73 77 81 82 87 91
237 239 243 247 247 248 254 261 270 287 302 309 312 308 289 261 260 272 251 241 260 293 333 358 24 47 40 34 28 23 23 26 25 20 11 359 1 22 51 62 56 42 34 29 23 19 23 31 29 27 33 37 49 77 94 102 110 115 115 111 107 101 93 86 79 76 77 79 81 84 73 63 68 69 66 71 77 78 76 73 76 82 87 91 94
239 240 243 246 247 246 249 255 263 278 292 296 301 303 285 256 245 235 223 231 252 283 327 9 64 64 46 38 34 29 29 31 28 24 19 7 16 48 65 65 60 50 41 33 26 22 27 33 31 35 45 51 63 79 93 109 117 121 121 115 108 101 95 88 79 74 72 70 70 77 78 72 72 72 70 73 75 76 78 78 80 88 93 93 93
237 239 240 244 246 245 246 251 257 267 281 286 290 291 271 247 232 218 217 225 243 274 310 73 98 72 51 42 38 34 34 33 30 29 29 26 38 60 62 61 62 55 46 37 27 24 30 38 36 40 51 60 75 89 100 113 121 127 126 117 107 102 99 94 86 76 71 67 68 75 79 76 77 78 74 73 73 73 78 82 85 90 93 93 91
235 239 241 242 243 244 246 251 254 260 273 278 274 271 259 242 226 213 215 222 237 262 264 133 113 76 57 48 40 37 35 32 29 31 33 34 38 50 50 45 43 40 36 29 22 24 33 45 45 45 52 63 81 95 102 109 120 131 129 120 118 117 110 108 106 93 78 70 70 76 79 77 79 80 76 74 72 68 74 85 88 90 92 91 89
236 239 240 239 239 242 246 249 251 255 269 274 264 257 252 234 217 210 213 219 233 243 196 145 126 90 66 52 42 41 35 29 25 27 33 38 38 37 40 35 27 28 29 18 15 23 35 46 52 54 55 60 72 83 92 100 107 120 127 130 138 134 122 120 120 109 90 70 62 68 78 79 77 76 76 79 72 63 70 83 89 91 92 93 90